Location: Marengo
(51.4813°N, 109.7825°W)
Time: 22:53:27
(UTC+00:00)

Envisat - Pass Details

Date: 31 January 2022
Orbit: 764 x 765 km, 98.2° (Epoch: 22 May)

Event Time Altitude Azimuth Distance (km) Brightness Sun altitude
Rises 11:11:02 0° 24° (NNE) 3,244 6.7 -35.3°
Reaches altitude 10° 11:13:49 10° 39° (NE) 2,312 6.0 -34.8°
Maximum altitude 11:17:49 23° 91° (E) 1,591 5.2 -34.2°
Drops below altitude 10° 11:21:49 10° 143° (SE) 2,300 5.7 -33.6°
Sets 11:24:34 0° 158° (SSE) 3,221 6.3 -33.2°
